This is the latest recevied weather packets stored in our database for station/object N8QQQ. If no packets are shown the sender has not sent any weather packets the latest 10 day(s).
| Time | Temp. | Humidity | Pressure | Rain* | Wind** | Luminosity | Snow |
|---|---|---|---|---|---|---|---|
| 1777672659 | 4.44° C | 46% | 1016.6 hPa | 0 mm | - | 59 W/m² | - |
| 1777672049 | 4.44° C | 47% | 1016.7 hPa | 0 mm | - | 251 W/m² | - |
| 1777671745 | 3.89° C | 48% | 1016.7 hPa | 0 mm | - | 128 W/m² | - |
| 1777671441 | 3.89° C | 49% | 1016.7 hPa | 0 mm | - | 96 W/m² | - |
| 1777671137 | 3.89° C | 52% | 1016.6 hPa | 0 mm | - | 91 W/m² | - |
| 1777670828 | 3.89° C | 51% | 1016.5 hPa | 0 mm | - | 86 W/m² | - |
| 1777670525 | 3.89° C | 53% | 1016.6 hPa | 0 mm | - | 79 W/m² | - |
| 1777670222 | 3.89° C | 51% | 1016.6 hPa | 0 mm | - | 85 W/m² | - |
| 1777669616 | 3.89° C | 52% | 1016.7 hPa | 0 mm | - | 123 W/m² | - |
| 1777669009 | 3.89° C | 54% | 1016.8 hPa | 0 mm | - | 163 W/m² | - |
| 1777668403 | 3.33° C | 57% | 1016.8 hPa | 0 mm | - | 79 W/m² | - |
| 1777668099 | 3.33° C | 56% | 1017 hPa | 0 mm | - | 67 W/m² | - |
| 1777667796 | 3.33° C | 56% | 1016.8 hPa | 0 mm | - | 62 W/m² | - |
| 1777667494 | 3.33° C | 55% | 1016.7 hPa | 0 mm | - | 64 W/m² | - |
| 1777667190 | 3.33° C | 54% | 1017 hPa | 0 mm | - | 93 W/m² | - |
| 1777666887 | 3.33° C | 54% | 1016.8 hPa | 0 mm | - | 87 W/m² | - |
| 1777666584 | 3.33° C | 53% | 1017 hPa | 0 mm | - | 93 W/m² | - |
| 1777666280 | 3.33° C | 55% | 1017 hPa | 0 mm | - | 98 W/m² | - |
| 1777665977 | 3.33° C | 55% | 1016.8 hPa | 0 mm | - | 124 W/m² | - |
| 1777665373 | 2.78° C | 55% | 1016.8 hPa | 0 mm | - | 87 W/m² | - |
| 1777665068 | 2.78° C | 54% | 1017 hPa | 0 mm | - | 79 W/m² | - |
| 1777664157 | 3.33° C | 53% | 1016.8 hPa | 0 mm | - | 103 W/m² | - |
| 1777663856 | 3.33° C | 53% | 1016.7 hPa | 0 mm | - | 103 W/m² | - |
| 1777663551 | 2.78° C | 55% | 1016.8 hPa | 0 mm | - | 109 W/m² | - |
| 1777663249 | 2.78° C | 55% | 1016.8 hPa | 0 mm | - | 131 W/m² | - |
* Rain latest hour (hover to see other rain measurements)
** Current wind speed in m/s (hover to see current wind gust speed)